TimeCST,TemperatureF,Dew PointF,Humidity,Sea Level PressureIn,VisibilityMPH,Wind Direction,Wind SpeedMPH,Gust SpeedMPH,PrecipitationIn,Events,Conditions,WindDirDegrees,DateUTC
12:15 AM,23.4,18.1,80,29.32,5.0,NW,16.1,20.7,N/A,Snow,Light Snow,310,2014-01-25 06:15:00
12:35 AM,20.5,11.7,69,29.34,0.8,NW,20.7,31.1,N/A,Snow,Light Snow,310,2014-01-25 06:35:00
12:55 AM,18.3,6.3,59,29.34,2.0,NW,19.6,-,N/A,Snow,Light Snow,310,2014-01-25 06:55:00
1:15 AM,16.5,6.3,64,29.35,2.0,WNW,18.4,28.8,N/A,Snow,Light Snow,300,2014-01-25 07:15:00
1:35 AM,15.3,6.3,68,29.36,1.2,NW,23.0,28.8,N/A,Snow,Light Snow,310,2014-01-25 07:35:00
1:55 AM,14.4,5.9,69,29.37,1.0,NW,20.7,33.4,N/A,Snow,Light Snow,320,2014-01-25 07:55:00
2:15 AM,14.0,5.7,70,29.38,2.0,WNW,13.8,24.2,N/A,Snow,Light Snow,300,2014-01-25 08:15:00
2:35 AM,13.5,4.8,68,29.39,5.0,WNW,16.1,19.6,N/A,,Haze,300,2014-01-25 08:35:00
2:55 AM,12.9,3.7,67,29.40,2.5,NW,17.3,25.3,N/A,Snow,Light Snow,310,2014-01-25 08:55:00
3:15 AM,11.3,2.3,67,29.40,1.8,NW,20.7,32.2,N/A,Snow,Light Snow,310,2014-01-25 09:15:00
3:35 AM,10.4,1.2,66,29.41,1.2,WNW,17.3,27.6,N/A,Snow,Light Snow,300,2014-01-25 09:35:00
3:55 AM,9.9,0.3,65,29.42,0.8,NW,24.2,33.4,N/A,Snow,Light Snow,320,2014-01-25 09:55:00
4:15 AM,9.0,-0.0,67,29.43,1.2,NW,18.4,29.9,N/A,Snow,Light Snow,310,2014-01-25 10:15:00
4:35 AM,8.1,-1.7,65,29.44,1.2,NW,21.9,27.6,N/A,Snow,Light Snow,310,2014-01-25 10:35:00
4:55 AM,6.8,-3.8,62,29.45,1.5,NW,19.6,29.9,N/A,Snow,Light Snow,320,2014-01-25 10:55:00
5:15 AM,5.2,-4.2,65,29.47,1.5,NW,19.6,26.5,N/A,Snow,Light Snow,310,2014-01-25 11:15:00
5:35 AM,3.9,-5.4,65,29.49,2.5,NW,18.4,27.6,N/A,Snow,Light Snow,310,2014-01-25 11:35:00
5:55 AM,2.7,-6.5,66,29.49,4.0,NW,12.7,24.2,N/A,Snow,Light Snow,310,2014-01-25 11:55:00
6:15 AM,1.9,-6.9,67,29.50,4.0,WNW,13.8,24.2,N/A,,Haze,300,2014-01-25 12:15:00
6:35 AM,1.4,-7.6,66,29.52,5.0,NW,16.1,23.0,N/A,,Haze,310,2014-01-25 12:35:00
6:55 AM,0.9,-8.0,66,29.54,10.0,WNW,12.7,-,N/A,,Scattered Clouds,300,2014-01-25 12:55:00
7:15 AM,0.1,-8.5,67,29.55,4.0,NW,15.0,23.0,N/A,Snow,Light Snow,310,2014-01-25 13:15:00
7:35 AM,-0.8,-9.2,67,29.56,2.5,NW,13.8,27.6,N/A,Snow,Light Snow,310,2014-01-25 13:35:00
7:55 AM,-1.3,-10.3,66,29.57,7.0,WNW,13.8,20.7,N/A,,Clear,300,2014-01-25 13:55:00
8:15 AM,-1.5,-10.7,65,29.58,5.0,NW,16.1,21.9,N/A,,Haze,310,2014-01-25 14:15:00
8:35 AM,-1.5,-11.2,63,29.59,4.0,WNW,12.7,-,N/A,,Haze,300,2014-01-25 14:35:00
8:55 AM,-1.3,-11.2,63,29.59,2.5,WNW,12.7,23.0,N/A,,Haze,300,2014-01-25 14:55:00
9:15 AM,-1.5,-11.2,63,29.59,1.8,WNW,16.1,27.6,N/A,,Haze,300,2014-01-25 15:15:00
9:35 AM,-1.1,-11.2,62,29.61,1.5,WNW,16.1,26.5,N/A,,Haze,300,2014-01-25 15:35:00
9:55 AM,-0.8,-10.8,62,29.61,2.0,NW,15.0,25.3,N/A,,Haze,320,2014-01-25 15:55:00
10:15 AM,-0.4,-10.7,62,29.62,5.0,NW,10.4,17.3,N/A,,Haze,310,2014-01-25 16:15:00
10:35 AM,-0.2,-10.8,61,29.63,2.5,NNW,21.9,25.3,N/A,,Haze,330,2014-01-25 16:35:00
10:55 AM,0.3,-10.5,60,29.64,1.2,NW,17.3,24.2,N/A,Snow,Light Snow,320,2014-01-25 16:55:00
11:15 AM,1.2,-10.5,58,29.64,7.0,NW,12.7,-,N/A,,Mostly Cloudy,310,2014-01-25 17:15:00
11:35 AM,1.0,-10.7,58,29.64,2.5,WNW,16.1,20.7,N/A,,Haze,300,2014-01-25 17:35:00
11:55 AM,1.8,-10.5,57,29.64,1.8,WNW,15.0,24.2,N/A,,Haze,300,2014-01-25 17:55:00
12:15 PM,2.1,-10.3,56,29.63,1.8,WNW,13.8,25.3,N/A,,Haze,300,2014-01-25 18:15:00
12:35 PM,2.3,-10.3,56,29.63,3.0,NW,15.0,25.3,N/A,,Haze,310,2014-01-25 18:35:00
12:55 PM,2.8,-10.1,55,29.63,2.5,WNW,15.0,21.9,N/A,,Haze,290,2014-01-25 18:55:00
1:15 PM,3.2,-10.3,54,29.62,3.0,NW,16.1,23.0,N/A,,Haze,310,2014-01-25 19:15:00
1:35 PM,3.2,-10.5,53,29.63,3.0,WNW,18.4,24.2,N/A,,Haze,290,2014-01-25 19:35:00
1:55 PM,3.7,-9.9,53,29.63,1.2,NW,19.6,24.2,N/A,Snow,Light Snow,310,2014-01-25 19:55:00
2:15 PM,3.7,-10.1,53,29.63,1.5,WNW,17.3,24.2,N/A,,Haze,300,2014-01-25 20:15:00
2:35 PM,3.7,-10.3,52,29.63,1.2,WNW,12.7,26.5,N/A,,Haze,300,2014-01-25 20:35:00
2:55 PM,4.1,-10.3,51,29.64,5.0,WNW,15.0,20.7,N/A,,Haze,290,2014-01-25 20:55:00
3:15 PM,3.9,-10.7,51,29.65,2.5,WNW,13.8,21.9,N/A,,Haze,300,2014-01-25 21:15:00
3:35 PM,3.9,-11.2,50,29.65,10.0,WNW,12.7,17.3,N/A,,Clear,290,2014-01-25 21:35:00
3:55 PM,3.0,-11.7,50,29.65,10.0,West,16.1,21.9,N/A,,Clear,280,2014-01-25 21:55:00
4:15 PM,2.8,-11.9,50,29.65,10.0,WNW,16.1,21.9,N/A,,Clear,290,2014-01-25 22:15:00
4:35 PM,2.1,-12.3,51,29.66,10.0,West,17.3,24.2,N/A,,Clear,280,2014-01-25 22:35:00
4:55 PM,1.4,-13.0,51,29.67,10.0,West,15.0,19.6,N/A,,Clear,280,2014-01-25 22:55:00
5:15 PM,1.0,-13.2,51,29.67,10.0,West,12.7,20.7,N/A,,Clear,280,2014-01-25 23:15:00
5:35 PM,0.3,-13.5,52,29.68,10.0,West,8.1,-,N/A,,Clear,280,2014-01-25 23:35:00
5:55 PM,-0.0,-13.9,52,29.68,10.0,West,8.1,-,N/A,,Clear,280,2014-01-25 23:55:00
6:15 PM,-1.1,-14.6,53,29.68,10.0,West,5.8,-,N/A,,Clear,260,2014-01-26 00:15:00
6:35 PM,-1.5,-14.8,53,29.68,10.0,West,8.1,-,N/A,,Clear,260,2014-01-26 00:35:00
6:55 PM,-1.8,-15.0,54,29.68,10.0,West,8.1,-,N/A,,Clear,260,2014-01-26 00:55:00
7:15 PM,-1.8,-14.8,54,29.68,10.0,West,9.2,-,N/A,,Clear,270,2014-01-26 01:15:00
7:35 PM,-2.2,-14.8,55,29.65,10.0,West,5.8,-,N/A,,Clear,260,2014-01-26 01:35:00
7:55 PM,-1.5,-14.8,53,29.65,10.0,West,6.9,-,N/A,,Clear,270,2014-01-26 01:55:00
8:15 PM,-1.3,-14.8,53,29.66,10.0,WSW,6.9,-,N/A,,Scattered Clouds,250,2014-01-26 02:15:00
9:15 PM,-2.6,-13.5,60,29.64,10.0,WSW,5.8,-,N/A,,Scattered Clouds,240,2014-01-26 03:15:00
9:35 PM,-2.2,-13.0,60,29.64,10.0,WSW,4.6,-,N/A,,Scattered Clouds,240,2014-01-26 03:35:00
9:55 PM,-1.8,-12.5,61,29.62,10.0,SW,5.8,-,N/A,,Scattered Clouds,230,2014-01-26 03:55:00
10:15 PM,-1.7,-11.7,62,29.61,10.0,SSW,4.6,-,N/A,,Mostly Cloudy,210,2014-01-26 04:15:00
10:35 PM,-1.5,-11.6,62,29.59,10.0,South,3.5,-,N/A,,Overcast,190,2014-01-26 04:35:00
10:55 PM,-1.3,-11.2,63,29.58,10.0,SW,3.5,-,N/A,,Overcast,230,2014-01-26 04:55:00
11:15 PM,-1.3,-11.4,62,29.57,10.0,Calm,Calm,-,N/A,,Scattered Clouds,0,2014-01-26 05:15:00
11:35 PM,-1.3,-10.7,65,29.55,10.0,Calm,Calm,-,N/A,,Scattered Clouds,0,2014-01-26 05:35:00
11:55 PM,-1.3,-10.3,66,29.54,10.0,Calm,Calm,-,N/A,,Overcast,0,2014-01-26 05:55:00